User: anonymous   Login
Location: Newark
(37.3144°N, 138.7950°E)
Time: 17:21:56
(UTC+00:00)
Language:

N. Korean satellite - Orbit

View from above orbital plane
View from above orbital plane
View from above satellite
View from above satellite

Ground track
Ground track

The orbit data is extracted from the following two-line orbital elements,

1 39026U 12072A   19265.47808628  .00000972  00000-0  37431-4 0  9998
2 39026  97.2145 265.5472 0039483 119.4275 241.0915 15.27995795376228
Epoch (UTC): 22 September 2019 11:28:26
Eccentricity: 0.0039483
inclination: 97.2145°
perigee height: 455 km
apogee height: 509 km
right ascension of ascending node: 265.5472°
argument of perigee: 119.4275°
revolutions per day: 15.27995795
mean anomaly at epoch: 241.0915°
orbit number at epoch: 37622

The dashed part of the orbit path shows where the satellite is in the earth's shadow,  

DLR